Weather History for Pensacola NAS, FL

Change the Weather History Date:

Friday, November 23, 2012

  Actual Average Record
Temperature  
Mean Temperature 58 °F -  
Max Temperature 73 °F 67 °F 79 °F (2010)
Min Temperature 44 °F 48 °F 34 °F (2002)
Degree Days  
Heating Degree Days 6    
Growing Degree Days 8 (Base 50)    
Moisture  
Dew Point 48 °F    
Average Humidity 87    
Maximum Humidity 100    
Minimum Humidity 37    
Precipitation  
Precipitation 0.00 in - - ()
Sea Level Pressure  
Sea Level Pressure 30.20 in    
Wind  
Wind Speed 2 mph (WNW)    
Max Wind Speed 13 mph    
Max Gust Speed 18 mph    
Visibility 5 miles    
Events Fog , Rain    
Averages and records for this station are not official NWS values.
T = Trace of Precipitation, MM = Missing Value Source: NWS Daily Summary

Daily Weather History Graph

Daily Weather History Graph

Search for Another Location

Airport:

Trip Planner

Search our weather history database for the weather conditions in past years. The results will help you decide how hot, cold, wet, or windy it might be!

Date:

Astronomy

Nov. 23, 2012 Rise Set
Actual Time 6:22 AM CST 4:49 PM CST
Civil Twilight 5:56 AM CST 5:15 PM CST
Nautical Twilight 5:26 AM CST 5:44 PM CST
Astronomical Twilight 4:58 AM CST 6:13 PM CST
Moon 1:49 PM CST (11/23) 1:57 AM CST (11/23)
Length of Visible Light 11h 18m
Length of Day
10h 27m
Waxing Gibbous, 80% of the Moon is Illuminated
Nov 23
Waxing Gibbous
Nov 28
Full
Dec 6
Last Quarter
Dec 13
New
Dec 19
First Quarter

Hourly Weather History & Observations

Time (CST) Temp. Windchill Dew Point Humidity Pressure Visibility Wind Dir Wind Speed Gust Speed Precip Events Conditions
12:03 AM 48.2 °F - 48.2 °F 100% 30.20 in 0.8 mi Calm Calm - N/A   Clear
12:08 AM 48.2 °F - 46.4 °F 93% 30.20 in 2.5 mi Calm Calm - N/A   Clear
12:15 AM 48.2 °F - 48.2 °F 100% 30.20 in 5.0 mi Calm Calm - N/A   Clear
12:41 AM 46.4 °F - 44.6 °F 93% 30.20 in 1.8 mi Calm Calm - N/A   Clear
12:53 AM 46.4 °F - 46.4 °F 100% 30.20 in 3.0 mi Calm Calm - N/A   Clear
12:56 AM 46.9 °F - 46.9 °F 100% 30.21 in 5.0 mi Calm Calm - N/A   Clear
1:29 AM 46.4 °F - 46.4 °F 100% 30.20 in 1.8 mi Calm Calm - 0.00 in   Clear
1:39 AM 46.4 °F - 44.6 °F 93% 30.20 in 0.8 mi Calm Calm - 0.00 in   Clear
1:47 AM 46.4 °F - 46.4 °F 100% 30.20 in 2.0 mi Calm Calm - 0.00 in   Clear
1:56 AM 46.0 °F - 46.0 °F 100% 30.21 in 5.0 mi Calm Calm - 0.00 in   Clear
2:07 AM 46.4 °F - 46.4 °F 100% 30.20 in 1.8 mi Calm Calm - N/A   Clear
2:22 AM 46.4 °F 45.2 °F 46.4 °F 100% 30.20 in 2.5 mi WNW 3.5 mph - N/A   Clear
2:34 AM 46.4 °F - 44.6 °F 93% 30.20 in 3.0 mi Calm Calm - N/A   Clear
2:42 AM 44.6 °F - 44.6 °F 100% 30.20 in 2.0 mi Calm Calm - N/A   Clear
2:56 AM 46.0 °F 44.8 °F 45.0 °F 96% 30.21 in 2.5 mi NNW 3.5 mph - N/A   Clear
3:04 AM 46.4 °F 45.2 °F 44.6 °F 93% 30.20 in 3.0 mi NW 3.5 mph - N/A   Clear
3:36 AM 44.6 °F - 44.6 °F 100% 30.21 in 1.8 mi Calm Calm - N/A   Clear
3:45 AM 44.6 °F - 44.6 °F 100% 30.20 in 3.0 mi Calm Calm - 0.00 in Rain Light Rain
3:50 AM 46.4 °F 45.2 °F 44.6 °F 93% 30.21 in 2.5 mi NNW 3.5 mph - 0.00 in Rain Light Rain
3:56 AM 46.9 °F - 46.0 °F 97% 30.21 in 1.0 mi NNW 3.5 mph - 0.00 in Rain Light Rain
4:04 AM 46.4 °F - 44.6 °F 93% 30.20 in 0.8 mi Calm Calm - 0.00 in   Mist
4:10 AM 46.4 °F - 46.4 °F 100% 30.21 in 1.2 mi Calm Calm - 0.00 in   Partly Cloudy
4:24 AM 44.6 °F 43.1 °F 44.6 °F 100% 30.21 in 2.5 mi NW 3.5 mph - 0.00 in   Clear
4:56 AM 44.1 °F - 44.1 °F 100% 30.22 in 2.5 mi Calm Calm - 0.00 in   Clear
5:09 AM 44.6 °F 43.1 °F 44.6 °F 100% 30.22 in 3.0 mi NW 3.5 mph - N/A   Clear
5:29 AM 44.6 °F 43.1 °F 44.6 °F 100% 30.22 in 2.5 mi NW 3.5 mph - N/A   Clear
5:41 AM 44.6 °F 43.1 °F 44.6 °F 100% 30.22 in 1.8 mi NW 3.5 mph - N/A   Clear
5:53 AM 44.6 °F 43.1 °F 44.6 °F 100% 30.23 in 7.0 mi NW 3.5 mph - N/A Fog Shallow Fog
5:56 AM 45.0 °F - 44.1 °F 97% 30.24 in 7.0 mi Calm Calm - N/A Fog Shallow Fog
6:56 AM 46.0 °F - 46.0 °F 100% 30.25 in 7.0 mi Calm Calm - N/A Fog Shallow Fog
7:56 AM 57.0 °F - 55.0 °F 93% 30.26 in 7.0 mi NW 3.5 mph - N/A   Scattered Clouds
8:56 AM 64.0 °F - 54.0 °F 70% 30.27 in 10.0 mi NW 5.8 mph - N/A   Partly Cloudy
9:56 AM 69.1 °F - 52.0 °F 54% 30.26 in 10.0 mi WNW 6.9 mph - N/A   Partly Cloudy
10:56 AM 72.0 °F - 51.1 °F 48% 30.24 in 10.0 mi NNW 9.2 mph - N/A   Scattered Clouds
11:56 AM 73.0 °F - 48.9 °F 42% 30.20 in 10.0 mi WNW 10.4 mph - N/A   Scattered Clouds
12:56 PM 72.0 °F - 54.0 °F 53% 30.17 in 10.0 mi SSW 10.4 mph - N/A   Partly Cloudy
1:56 PM 73.9 °F - 46.0 °F 37% 30.14 in 10.0 mi Variable 4.6 mph - N/A   Partly Cloudy
2:56 PM 73.0 °F - 48.0 °F 41% 30.13 in 10.0 mi NW 5.8 mph - N/A   Scattered Clouds
3:56 PM 66.9 °F - 55.9 °F 68% 30.13 in 10.0 mi SW 8.1 mph - N/A   Scattered Clouds
4:56 PM 63.0 °F - 55.0 °F 75% 30.13 in 10.0 mi WSW 5.8 mph - N/A   Mostly Cloudy
5:56 PM 62.1 °F - 54.0 °F 75% 30.14 in 10.0 mi West 4.6 mph - N/A   Scattered Clouds
6:56 PM 62.1 °F - 55.0 °F 78% 30.15 in 10.0 mi West 5.8 mph - N/A   Partly Cloudy
7:56 PM 61.0 °F - 55.9 °F 83% 30.15 in 10.0 mi West 5.8 mph - N/A   Partly Cloudy
8:56 PM 61.0 °F - 55.9 °F 83% 30.16 in 10.0 mi WNW 4.6 mph - N/A   Partly Cloudy
9:56 PM 61.0 °F - 55.0 °F 81% 30.17 in 10.0 mi NNW 9.2 mph - N/A   Clear
10:56 PM 60.1 °F - 55.0 °F 83% 30.17 in 10.0 mi NW 10.4 mph 18.4 mph N/A   Clear
11:56 PM 57.9 °F - 54.0 °F 87% 30.16 in 10.0 mi NNW 12.7 mph 18.4 mph N/A   Clear